When you browse on this site, cookies collect data to enhance your experience and personalize the content and advertising you see.
Visit our Privacy Policy to learn more. By continuing to use the site, you agree to this use of cookies and data.
  • Em Portugal
  • Lista de países
  • Para 7 dias
  • Temperatura da água
  • Mapas de satélite
  • Mapa do tempo
  • Widgets de tempo
  • user-avatar
    Iniciar Sessão

    Previsão horária em Osowa

    Hoje, 26 Abril, Sexta-feira

    Tempo Temperatura Precipitação Vento Pressão Humidade
    00:00 +14°C° 0.1 mm 2 m/s 744 mmHg 88%
    01:00 +14°C° 0.1 mm 2 m/s 744 mmHg 89%
    02:00 +13°C° 0.1 mm 2 m/s 744 mmHg 91%
    03:00 +13°C° 0 mm 2 m/s 744 mmHg 92%
    04:00 +11°C° 0 mm 3 m/s 743 mmHg 93%
    05:00 +11°C° 0 mm 3 m/s 743 mmHg 93%
    06:00 +12°C° 0 mm 3 m/s 743 mmHg 89%
    07:00 +14°C° 0 mm 3 m/s 743 mmHg 84%
    08:00 +15°C° 0 mm 4 m/s 743 mmHg 80%
    09:00 +18°C° 0 mm 4 m/s 743 mmHg 74%
    10:00 +19°C° 0 mm 4 m/s 743 mmHg 68%
    11:00 +21°C° 0 mm 4 m/s 742 mmHg 63%
    12:00 +22°C° 0.3 mm 4 m/s 742 mmHg 60%
    13:00 +23°C° 0.3 mm 4 m/s 742 mmHg 57%
    14:00 +23°C° 0.3 mm 4 m/s 742 mmHg 55%
    15:00 +24°C° 0.5 mm 3 m/s 741 mmHg 56%
    16:00 +24°C° 0.5 mm 3 m/s 741 mmHg 57%
    17:00 +24°C° 0.5 mm 3 m/s 740 mmHg 58%
    18:00 +21°C° 0.1 mm 3 m/s 740 mmHg 64%
    19:00 +20°C° 0.1 mm 2 m/s 740 mmHg 71%
    20:00 +18°C° 0.1 mm 2 m/s 740 mmHg 77%
    21:00 +17°C° 0 mm 2 m/s 740 mmHg 81%
    22:00 +17°C° 0 mm 2 m/s 739 mmHg 85%
    23:00 +16°C° 0 mm 2 m/s 739 mmHg 89%

    Amanhã, 27 Abril, Sábado

    Tempo Temperatura Precipitação Vento Pressão Humidade
    00:00 +15°C° 0 mm 2 m/s 739 mmHg 90%
    01:00 +15°C° 0 mm 2 m/s 739 mmHg 91%
    02:00 +14°C° 0 mm 2 m/s 739 mmHg 92%
    03:00 +14°C° 0 mm 2 m/s 738 mmHg 92%
    04:00 +14°C° 0 mm 2 m/s 738 mmHg 93%
    05:00 +14°C° 0 mm 2 m/s 738 mmHg 93%
    06:00 +15°C° 0 mm 2 m/s 738 mmHg 88%
    07:00 +16°C° 0 mm 2 m/s 738 mmHg 84%
    08:00 +18°C° 0 mm 2 m/s 738 mmHg 80%
    09:00 +20°C° 0 mm 2 m/s 738 mmHg 73%
    10:00 +23°C° 0 mm 2 m/s 738 mmHg 65%
    11:00 +25°C° 0 mm 2 m/s 738 mmHg 58%
    12:00 +25°C° 0.3 mm 2 m/s 738 mmHg 54%
    13:00 +26°C° 0.3 mm 2 m/s 737 mmHg 49%
    14:00 +27°C° 0.3 mm 1 m/s 737 mmHg 45%
    15:00 +26°C° 0.3 mm 2 m/s 737 mmHg 50%
    16:00 +25°C° 0.3 mm 2 m/s 737 mmHg 56%
    17:00 +24°C° 0.3 mm 2 m/s 737 mmHg 61%
    18:00 +21°C° 1 mm 2 m/s 737 mmHg 69%
    19:00 +20°C° 1 mm 2 m/s 737 mmHg 77%
    20:00 +18°C° 1 mm 2 m/s 737 mmHg 84%
    21:00 +17°C° 0.3 mm 3 m/s 737 mmHg 88%
    22:00 +16°C° 0.3 mm 3 m/s 738 mmHg 91%
    23:00 +16°C° 0.3 mm 3 m/s 738 mmHg 94%

    Depois de amanhã, 28 Abril, Domingo

    Tempo Temperatura Precipitação Vento Pressão Humidade
    00:00 +14°C° 0.4 mm 4 m/s 738 mmHg 94%
    01:00 +13°C° 0.4 mm 4 m/s 738 mmHg 94%
    02:00 +12°C° 0.4 mm 4 m/s 738 mmHg 94%
    03:00 +12°C° 0.5 mm 4 m/s 738 mmHg 95%
    04:00 +12°C° 0.5 mm 4 m/s 739 mmHg 95%
    05:00 +11°C° 0.5 mm 3 m/s 739 mmHg 95%
    06:00 +12°C° 0.3 mm 3 m/s 739 mmHg 95%
    07:00 +12°C° 0.3 mm 3 m/s 739 mmHg 94%
    08:00 +12°C° 0.3 mm 3 m/s 740 mmHg 93%
    09:00 +12°C° 0 mm 3 m/s 740 mmHg 93%
    10:00 +12°C° 0 mm 4 m/s 740 mmHg 92%
    11:00 +13°C° 0 mm 4 m/s 741 mmHg 91%
    12:00 +14°C° 0.1 mm 4 m/s 741 mmHg 88%
    13:00 +16°C° 0.1 mm 3 m/s 741 mmHg 85%
    14:00 +17°C° 0.1 mm 3 m/s 741 mmHg 81%
    15:00 +17°C° 1.3 mm 3 m/s 741 mmHg 80%
    16:00 +18°C° 1.3 mm 3 m/s 741 mmHg 80%
    17:00 +18°C° 1.3 mm 3 m/s 741 mmHg 79%
    18:00 +17°C° 0.9 mm 3 m/s 742 mmHg 81%
    19:00 +15°C° 0.9 mm 4 m/s 742 mmHg 83%
    20:00 +15°C° 0.9 mm 4 m/s 743 mmHg 85%
    21:00 +13°C° 0 mm 4 m/s 743 mmHg 86%
    22:00 +12°C° 0 mm 5 m/s 743 mmHg 87%
    23:00 +10°C° 0 mm 5 m/s 744 mmHg 88%

    29 Abril, Segunda-feira

    Tempo Temperatura Precipitação Vento Pressão Humidade
    00:00 +9°C° 0 mm 5 m/s 744 mmHg 88%
    01:00 +8°C° 0 mm 5 m/s 744 mmHg 88%
    02:00 +8°C° 0 mm 5 m/s 744 mmHg 88%
    03:00 +7°C° 0 mm 5 m/s 744 mmHg 85%
    04:00 +6°C° 0 mm 5 m/s 744 mmHg 82%
    05:00 +6°C° 0 mm 5 m/s 745 mmHg 80%
    06:00 +6°C° 0 mm 5 m/s 745 mmHg 76%
    07:00 +7°C° 0 mm 5 m/s 745 mmHg 72%
    08:00 +7°C° 0 mm 6 m/s 745 mmHg 68%
    09:00 +8°C° 0 mm 6 m/s 746 mmHg 63%
    10:00 +10°C° 0 mm 6 m/s 746 mmHg 59%
    11:00 +11°C° 0 mm 6 m/s 746 mmHg 55%
    12:00 +13°C° 0 mm 6 m/s 746 mmHg 51%
    13:00 +14°C° 0 mm 6 m/s 746 mmHg 48%
    14:00 +14°C° 0 mm 6 m/s 746 mmHg 44%
    15:00 +14°C° 0 mm 6 m/s 745 mmHg 45%
    16:00 +14°C° 0 mm 6 m/s 745 mmHg 46%
    17:00 +14°C° 0 mm 5 m/s 745 mmHg 47%
    18:00 +12°C° 0 mm 5 m/s 745 mmHg 53%
    19:00 +11°C° 0 mm 4 m/s 745 mmHg 59%
    20:00 +9°C° 0 mm 3 m/s 745 mmHg 64%
    21:00 +8°C° 0 mm 3 m/s 746 mmHg 66%
    22:00 +7°C° 0 mm 3 m/s 746 mmHg 67%
    23:00 +7°C° 0 mm 3 m/s 746 mmHg 69%

    30 Abril, Terça-feira

    Tempo Temperatura Precipitação Vento Pressão Humidade
    00:00 +5°C° 0 mm 3 m/s 746 mmHg 71%
    01:00 +4°C° 0 mm 3 m/s 746 mmHg 73%
    02:00 +4°C° 0 mm 3 m/s 746 mmHg 75%
    03:00 +3°C° 0 mm 3 m/s 746 mmHg 77%
    04:00 +3°C° 0 mm 3 m/s 745 mmHg 78%
    05:00 +2°C° 0 mm 3 m/s 745 mmHg 79%
    06:00 +4°C° 0 mm 3 m/s 745 mmHg 74%
    07:00 +5°C° 0 mm 4 m/s 745 mmHg 69%
    08:00 +7°C° 0 mm 4 m/s 745 mmHg 64%
    09:00 +8°C° 0 mm 4 m/s 745 mmHg 59%
    10:00 +10°C° 0 mm 4 m/s 745 mmHg 54%
    11:00 +12°C° 0 mm 5 m/s 745 mmHg 49%
    12:00 +12°C° 0 mm 5 m/s 744 mmHg 47%
    13:00 +13°C° 0 mm 5 m/s 744 mmHg 46%
    14:00 +14°C° 0 mm 4 m/s 744 mmHg 44%
    15:00 +14°C° 0 mm 4 m/s 744 mmHg 44%
    16:00 +14°C° 0 mm 4 m/s 743 mmHg 44%
    17:00 +13°C° 0 mm 4 m/s 743 mmHg 44%
    18:00 +12°C° 0 mm 4 m/s 743 mmHg 51%
    19:00 +10°C° 0 mm 3 m/s 743 mmHg 57%
    20:00 +8°C° 0 mm 2 m/s 743 mmHg 63%
    21:00 +8°C° 0 mm 2 m/s 743 mmHg 64%
    22:00 +7°C° 0 mm 2 m/s 743 mmHg 65%
    23:00 +6°C° 0 mm 2 m/s 743 mmHg 66%

    1 Maio, Quarta-feira

    Tempo Temperatura Precipitação Vento Pressão Humidade
    00:00 +6°C° 0 mm 2 m/s 743 mmHg 66%
    01:00 +5°C° 0 mm 2 m/s 743 mmHg 66%
    02:00 +6°C° 0 mm 1 m/s 743 mmHg 66%
    03:00 +6°C° 0 mm 1 m/s 743 mmHg 67%
    04:00 +5°C° 0 mm 1 m/s 742 mmHg 68%
    05:00 +5°C° 0 mm 1 m/s 742 mmHg 69%
    06:00 +7°C° 0 mm 1 m/s 742 mmHg 64%
    07:00 +9°C° 0 mm 1 m/s 742 mmHg 59%
    08:00 +10°C° 0 mm 1 m/s 742 mmHg 55%
    09:00 +12°C° 0 mm 1 m/s 742 mmHg 49%
    10:00 +13°C° 0 mm 2 m/s 742 mmHg 44%
    11:00 +14°C° 0 mm 2 m/s 741 mmHg 39%
    12:00 +14°C° 0 mm 1 m/s 741 mmHg 39%
    13:00 +14°C° 0 mm 1 m/s 740 mmHg 39%
    14:00 +14°C° 0 mm 1 m/s 740 mmHg 40%
    15:00 +14°C° 0 mm 1 m/s 740 mmHg 41%
    16:00 +14°C° 0 mm 1 m/s 739 mmHg 42%
    17:00 +14°C° 0 mm 1 m/s 739 mmHg 43%
    18:00 +13°C° 0 mm 1 m/s 739 mmHg 47%
    19:00 +12°C° 0 mm 1 m/s 738 mmHg 51%
    20:00 +11°C° 0 mm 1 m/s 738 mmHg 55%
    21:00 +10°C° 0 mm 1 m/s 738 mmHg 59%
    22:00 +9°C° 0 mm 1 m/s 737 mmHg 62%
    23:00 +7°C° 0 mm 2 m/s 737 mmHg 66%
    Mostrar mais